Theta_e
313 313 313 312 312 312 311 311 312 313 313 313 314 314 315 315 315 314 314 315 316 316 317 318 318 319 319 319 320 321 322 323 324 325 325 325 326 326 326 327 327 327
312 311 310 310 309 309 309 309 310 311 311 311 312 312 312 313 313 313 312 312 313 313 315 315 316 317 317 317 317 318 320 321 323 324 325 325 326 326 326 327 326 327
311 310 309 308 307 307 307 307 308 308 309 309 310 310 310 311 312 311 310 310 310 311 312 313 314 315 314 315 316 317 318 320 320 321 322 324 325 326 327 327 327 328
309 309 308 307 306 306 306 306 306 306 306 307 307 308 309 309 310 309 308 307 308 309 309 310 311 311 312 313 315 316 317 318 319 319 320 321 323 325 325 326 327 327
308 308 307 307 306 305 305 305 305 305 305 305 305 306 307 307 307 307 305 305 306 307 307 308 308 309 310 311 313 314 315 316 317 318 319 320 321 323 324 325 326 326
307 307 307 306 306 305 305 304 304 304 304 304 304 304 305 305 305 304 303 302 303 303 304 305 305 306 307 308 309 311 312 312 314 315 316 318 320 321 322 323 324 325
306 306 306 306 306 305 305 304 304 303 303 303 303 303 303 303 303 302 302 301 300 300 300 300 302 302 303 305 307 308 309 310 311 311 312 314 316 318 320 321 321 323
306 306 306 306 306 305 305 304 304 303 302 302 302 301 301 301 301 301 301 300 298 298 298 298 299 299 299 301 302 304 305 306 306 306 307 310 311 314 316 317 318 320
305 305 305 305 305 305 305 304 304 302 301 300 300 300 300 300 300 300 299 299 298 298 298 298 298 298 298 298 298 299 300 302 304 304 305 307 309 310 312 314 315 317
305 304 304 304 304 304 304 304 304 302 300 299 299 299 299 299 299 298 298 298 297 297 297 297 297 297 297 297 297 297 298 301 303 304 306 307 308 310 311 312 313 316
303 302 302 301 302 302 303 304 304 302 301 300 299 298 298 298 298 298 297 297 297 297 297 296 297 297 297 297 297 298 300 302 303 304 305 307 308 309 310 311 313 314
302 301 301 300 300 300 301 301 302 301 301 300 298 298 298 297 297 297 297 297 296 296 296 296 296 296 297 297 297 298 300 302 303 303 304 305 306 307 308 309 309 311
303 302 301 300 299 299 299 299 299 300 299 299 298 297 297 297 297 297 297 296 296 296 296 296 296 296 296 297 297 297 298 300 300 301 302 303 304 305 306 305 305 307
303 302 301 300 299 299 299 298 299 299 299 298 298 297 297 297 297 297 297 296 296 296 296 296 296 296 296 296 297 297 297 297 298 299 300 300 302 303 303 303 303 304
302 302 301 300 299 298 298 298 298 298 298 298 297 297 297 296 296 296 296 296 296 296 296 296 295 295 295 296 296 296 296 296 297 298 298 299 300 300 301 301 301 301
300 301 301 300 299 298 298 298 298 298 298 298 297 297 297 296 296 295 295 295 296 296 296 296 295 295 295 295 296 296 296 296 296 297 297 297 298 298 299 299 299 300
299 300 300 300 299 299 298 297 298 298 298 298 297 297 296 296 295 295 295 295 295 295 295 295 295 295 296 295 295 296 296 296 296 296 297 296 297 297 297 298 298 298
297 298 298 298 297 297 296 296 297 298 297 296 295 294 294 294 294 293 293 294 294 295 295 295 295 295 296 295 295 295 296 296 295 296 296 296 296 296 296 296 297 297
296 296 296 295 295 295 296 297 297 296 294 294 293 293 293 292 292 292 292 293 293 294 294 294 295 295 296 296 295 295 295 295 295 295 295 295 296 295 295 295 296 296
295 295 295 295 295 295 296 296 296 295 294 294 293 292 292 292 292 292 292 292 293 293 294 294 294 295 296 296 295 295 295 295 295 294 294 294 295 295 295 295 295 295
295 295 295 295 295 295 295 295 295 294 294 294 293 293 293 292 292 292 292 292 293 293 294 294 295 295 296 296 296 295 295 295 294 294 294 294 294 295 295 295 294 295
296 295 295 295 295 295 295 295 294 294 294 294 294 293 293 292 292 292 292 292 293 293 294 294 295 296 296 296 296 295 295 294 294 294 293 293 293 294 294 294 294 294
296 296 295 295 295 295 295 294 294 294 294 294 293 293 293 292 292 292 292 292 293 293 293 294 295 295 296 296 296 295 295 294 294 293 293 293 293 293 293 293 293 294
296 296 295 295 295 295 295 294 294 294 294 293 293 293 293 292 292 292 292 292 293 293 293 294 295 295 296 296 296 295 295 294 294 293 292 292 292 293 293 293 293 293
296 296 295 295 295 295 295 295 294 294 294 294 293 293 293 292 292 292 292 292 293 293 293 294 295 295 296 296 296 296 295 294 294 293 292 292 292 292 292 292 292 292
296 296 296 295 295 295 295 295 295 294 294 294 294 293 293 292 292 292 292 292 292 292 293 293 294 295 296 297 296 296 295 294 294 293 292 292 291 291 291 291 291 292
Wind_Speed
15 14 14 13 12 12 11 12 13 12 12 12 12 13 12 12 13 13 15 18 18 18 18 19 19 19 19 19 18 18 17 18 20 21 23 24 25 26 27 28 28 29
17 17 16 16 15 15 15 14 14 13 13 13 12 12 12 12 12 12 15 19 18 18 18 18 18 19 20 20 21 20 20 20 19 20 21 23 25 27 27 28 28 29
18 18 19 19 19 19 19 18 18 17 16 15 14 14 13 13 12 12 17 20 19 19 19 19 19 19 20 21 22 22 22 22 22 21 22 22 24 25 27 28 28 29
17 18 20 20 21 21 22 22 22 21 21 20 18 17 15 14 13 14 19 22 22 23 23 22 22 23 23 23 23 23 23 23 23 23 24 23 22 23 24 26 28 29
18 19 20 21 21 23 24 24 24 23 23 22 22 20 18 17 16 17 22 25 26 26 26 26 26 26 26 26 25 24 24 23 23 24 25 25 24 23 23 25 27 28
20 20 21 21 21 23 25 26 25 24 24 22 22 22 20 19 18 20 24 27 28 29 29 29 29 28 28 28 26 25 24 24 23 23 24 25 25 24 24 24 25 26
20 20 21 21 21 23 25 26 26 26 25 24 24 24 22 20 20 20 23 26 29 31 32 32 32 31 31 31 29 26 25 25 25 25 25 26 26 25 25 25 25 25
19 19 20 20 21 21 22 24 25 26 26 25 26 26 24 22 21 20 21 24 28 31 32 33 33 34 33 33 32 30 28 27 27 28 28 27 27 28 27 28 27 25
17 18 18 19 20 20 20 20 22 24 25 26 27 26 25 23 22 21 22 25 28 31 32 33 34 35 34 34 33 31 30 29 28 28 29 29 29 30 29 30 30 27
17 17 17 18 19 19 18 17 19 22 25 26 27 27 27 26 24 23 24 26 28 30 32 33 34 35 35 35 33 31 31 31 28 27 28 29 29 30 30 30 29 27
20 20 21 21 20 19 17 16 17 19 21 23 25 26 27 27 26 24 25 26 27 28 30 32 33 34 35 36 35 32 30 29 28 27 28 29 29 30 30 28 27 26
21 21 22 22 22 21 20 18 17 18 19 21 23 24 25 26 25 24 24 25 26 27 29 32 33 34 36 37 36 33 30 29 28 27 28 28 28 28 27 25 25 26
17 18 19 20 21 22 22 20 20 20 20 21 23 25 25 25 25 24 24 24 25 27 29 32 34 35 36 37 37 35 32 30 30 28 28 28 27 27 27 27 27 27
16 16 17 18 19 20 21 22 21 21 21 22 23 25 25 25 24 24 24 25 26 27 29 31 35 36 37 37 37 35 33 31 30 29 29 29 29 30 30 29 28 27
17 16 17 18 20 20 20 21 22 22 21 22 23 24 24 25 24 24 25 26 27 28 28 31 34 36 37 36 35 34 33 31 30 30 29 29 30 32 33 31 30 29
19 17 16 17 18 19 19 19 20 20 20 21 22 22 23 24 24 25 26 26 27 28 28 30 33 35 36 35 34 33 32 31 30 29 29 30 29 30 33 33 32 31
21 19 17 16 17 17 18 18 18 18 19 21 21 22 21 22 24 25 26 26 26 27 27 28 31 33 34 36 36 34 32 30 29 28 29 30 30 29 32 33 32 32
21 20 20 18 17 17 17 18 19 19 21 22 22 22 22 23 24 24 25 25 25 26 26 27 30 32 33 35 36 36 34 31 29 28 27 28 30 31 33 33 32 31
22 22 22 21 20 19 18 18 20 21 23 24 24 25 25 25 25 25 25 25 25 25 26 26 29 31 31 34 36 36 36 34 32 29 26 26 29 30 31 33 32 30
23 23 24 23 23 22 21 20 21 21 22 24 25 26 27 27 27 27 26 25 25 25 26 27 29 30 30 32 35 37 37 35 34 32 28 26 28 29 30 32 30 29
22 22 22 23 23 23 23 22 20 19 20 21 23 26 27 27 28 27 27 26 25 26 27 28 29 29 30 31 33 36 37 36 34 33 31 29 29 29 30 31 29 27
20 20 20 20 21 21 22 21 20 20 20 20 22 25 26 28 28 28 27 27 26 26 27 29 29 30 30 31 33 35 37 36 35 34 33 32 30 29 30 31 29 27
18 18 18 18 18 19 20 20 21 21 21 21 23 25 27 28 28 28 27 26 27 27 27 28 30 30 30 30 32 34 36 36 35 34 33 32 30 29 30 31 29 27
16 17 17 17 18 18 19 20 21 21 21 22 23 25 27 27 28 29 28 27 27 27 28 28 29 30 30 30 30 32 34 35 34 33 33 32 30 30 31 32 31 29
16 16 17 17 17 18 18 19 20 20 21 22 24 26 27 27 28 29 30 29 28 28 28 29 30 30 30 29 29 30 32 34 33 33 33 32 30 29 31 33 33 33
15 15 16 17 17 17 17 18 19 20 21 23 25 27 28 28 28 29 29 29 28 28 28 29 30 31 31 29 27 28 30 33 33 33 33 32 29 28 30 33 34 35
Wind_Direction
63 61 58 56 53 46 38 36 37 42 40 35 31 28 25 25 24 20 18 17 14 9 5 360 355 352 350 346 341 336 329 321 315 314 311 305 299 295 292 289 287 286
64 60 58 55 53 49 47 46 44 44 44 40 37 35 31 33 35 21 13 16 16 14 13 7 0 357 355 353 351 349 343 334 325 320 315 309 306 302 297 294 291 289
63 59 57 54 51 49 48 50 50 48 46 45 42 38 34 37 38 21 12 15 16 16 17 12 6 3 360 358 355 352 347 341 337 331 321 311 307 306 305 301 295 289
65 62 58 54 50 49 49 50 50 48 47 45 42 39 37 38 35 20 14 17 19 18 15 12 9 6 3 360 355 349 344 341 340 337 330 323 316 312 310 309 305 297
65 65 61 56 51 50 50 50 48 47 45 43 41 40 39 39 37 29 23 22 21 19 16 14 10 6 3 360 356 348 341 338 338 336 333 331 328 322 316 314 312 307
66 64 62 58 54 51 50 49 47 46 44 40 39 39 38 36 36 34 28 24 23 21 18 15 12 9 6 2 358 352 345 341 339 337 335 332 330 326 322 318 314 311
65 63 60 57 54 51 48 47 45 44 43 39 38 37 35 33 31 30 25 22 22 21 18 16 13 11 8 5 0 355 351 347 343 341 339 337 335 331 328 326 320 313
65 62 59 56 54 50 47 45 42 41 38 36 36 35 34 35 33 30 25 21 21 20 18 17 14 11 8 5 3 358 353 350 348 346 343 341 340 338 335 334 329 319
67 64 61 57 55 53 49 46 43 40 37 37 37 36 35 37 37 34 28 23 21 20 19 18 15 12 9 6 4 1 355 352 350 349 347 344 342 340 339 337 333 326
71 68 65 61 58 57 55 53 47 43 41 40 40 39 38 39 39 35 30 24 22 21 19 18 16 13 9 7 6 4 359 355 353 350 349 347 343 342 342 339 334 328
76 74 70 66 63 61 61 62 57 49 44 41 40 40 40 40 39 35 30 26 23 21 19 18 16 13 10 8 8 7 4 0 357 355 352 350 347 347 347 344 340 337
79 77 73 70 68 65 64 65 64 59 51 45 42 42 41 41 40 36 31 27 24 22 20 18 17 15 12 10 8 8 8 6 4 360 356 352 348 348 349 346 346 348
81 79 76 73 70 68 66 65 64 61 56 50 45 43 42 40 38 36 32 28 25 23 21 19 18 16 14 13 11 8 8 8 7 4 359 355 352 349 350 351 351 352
86 87 82 77 74 71 68 65 62 57 53 49 44 42 40 37 35 33 30 27 25 23 21 19 19 17 14 13 11 10 9 8 8 6 1 357 356 354 354 353 352 352
89 93 89 80 74 71 70 67 62 57 53 47 43 41 38 35 34 31 28 26 24 23 20 18 18 17 15 14 12 11 10 8 8 7 3 358 356 356 357 355 352 351
88 93 93 84 74 69 66 63 60 57 52 45 40 37 34 31 30 29 27 25 23 21 20 18 17 15 15 16 15 13 12 9 8 7 6 4 360 355 356 356 353 353
86 88 88 82 74 66 60 57 56 56 50 43 37 34 30 27 26 26 25 23 22 21 19 17 15 13 13 16 17 16 14 11 8 5 5 6 3 359 358 356 353 353
85 83 79 73 68 65 62 60 60 57 50 44 40 35 32 29 27 25 24 22 22 21 19 17 15 12 11 14 15 17 16 14 9 5 2 3 3 2 1 358 355 352
87 82 76 71 68 67 67 67 64 59 52 47 43 39 36 33 30 27 25 24 23 22 20 18 15 13 11 12 13 15 17 16 12 7 3 0 360 360 359 358 356 352
88 85 80 75 73 71 70 68 65 60 54 47 43 39 35 32 29 26 25 25 24 24 22 20 17 14 12 11 12 13 16 16 14 11 8 3 360 358 356 355 356 353
90 88 83 79 76 73 71 69 65 59 52 45 40 37 34 31 28 25 24 25 25 24 23 22 20 17 14 12 11 12 15 16 13 11 11 7 3 360 356 354 354 351
92 90 86 81 77 73 70 67 63 58 52 46 42 38 34 32 29 27 25 25 25 24 23 22 22 20 17 14 11 11 14 15 12 10 10 7 4 0 356 355 354 350
96 93 89 84 79 74 70 66 62 58 54 49 44 39 35 32 30 29 28 26 26 25 22 21 22 21 19 16 13 12 14 14 12 9 7 4 2 360 356 355 354 351
98 96 92 87 82 76 72 67 62 58 54 50 46 41 37 35 33 32 31 29 27 26 22 21 21 21 20 18 15 14 15 15 12 8 5 1 359 357 356 356 355 353
99 97 93 88 83 78 73 67 62 58 54 50 47 43 39 37 36 35 33 30 28 26 24 22 21 21 21 19 17 16 17 16 13 8 4 1 358 354 353 355 356 355
99 96 92 88 84 79 74 68 61 56 52 49 46 43 40 38 37 35 32 30 27 25 24 22 19 19 21 21 19 18 18 16 14 9 4 1 358 353 351 352 354 355